CAPE
0 0 0 0 0 0 0 0 0 0 0 0 0 0 0 0 0 0 0 4 331 2264 2063 1254 1032 688 43 108 223 60 61 89 127 270 509 235 135 302 438 101 197 436 123 136 241
0 0 0 0 0 0 0 0 0 0 0 0 0 0 0 0 0 0 0 97 2110 2014 775 902 706 40 164 316 206 45 33 74 296 156 550 292 356 502 153 240 384 227 166 253 433
0 0 0 0 0 0 0 0 0 0 0 0 0 0 0 0 0 26 79 2240 2303 1438 764 745 169 69 30 48 72 53 27 94 324 349 588 344 568 492 133 520 430 138 192 322 568
0 0 0 0 0 0 0 0 0 0 0 0 0 0 0 0 0 21 1786 2258 2209 695 744 466 242 425 309 239 204 140 331 248 338 389 551 502 517 348 376 629 568 211 185 420 713
0 0 0 0 0 0 0 0 0 0 0 0 0 0 0 0 0 858 2206 2092 1070 1013 849 354 355 556 589 419 502 533 148 237 243 435 331 443 568 515 548 535 449 304 322 512 667
0 0 0 0 0 0 0 0 0 0 0 0 0 0 0 0 2 1183 1121 905 916 1069 912 489 679 781 590 308 261 73 44 133 211 274 413 277 549 601 629 387 371 352 366 590 679
0 0 0 0 0 0 0 0 0 0 0 0 0 0 0 0 129 853 601 460 834 1020 677 907 714 912 896 97 20 2 1 8 165 176 266 437 550 620 486 309 357 433 471 538 688
0 0 0 0 0 0 0 0 0 0 0 0 0 0 0 0 143 434 246 452 662 1242 816 647 887 1097 864 176 110 32 1 3 50 155 194 279 324 559 357 250 294 427 494 564 618
0 0 0 0 0 0 0 0 0 0 0 1 0 0 0 0 0 0 0 0 457 609 1080 300 214 426 150 61 141 120 66 16 38 176 136 149 176 495 336 231 219 278 357 329 292
0 0 0 0 0 0 0 0 0 0 0 0 0 0 0 0 0 0 0 0 11 47 87 102 124 121 104 29 4 120 127 156 135 435 169 112 107 473 358 318 296 261 305 350 398
0 0 0 0 0 0 0 0 0 0 0 0 0 0 0 0 0 0 0 0 14 75 213 173 90 38 38 36 1 44 186 188 127 161 177 67 92 397 424 327 351 339 334 403 450
0 0 0 0 0 0 0 0 0 0 0 0 0 0 0 0 0 0 0 0 2 58 217 168 101 22 45 29 1 0 209 111 123 178 135 85 123 222 339 292 306 301 378 400 396
0 0 0 0 0 0 0 0 0 0 0 0 0 0 0 0 0 0 0 1 35 114 225 181 50 45 54 23 2 0 39 40 45 267 147 70 50 143 268 189 248 176 164 202 277
0 0 0 0 0 0 0 0 0 0 0 0 0 0 0 0 0 0 0 0 49 71 154 79 67 95 56 13 0 0 0 20 211 131 117 19 41 107 258 414 233 141 158 157 105
0 0 0 0 0 0 0 0 0 0 0 0 0 0 0 0 0 0 0 0 10 6 11 54 95 118 27 8 0 28 131 239 194 92 41 66 44 24 125 313 212 109 98 137 129
0 0 0 0 0 0 0 0 0 0 0 0 0 0 0 0 0 0 0 0 0 0 0 44 83 75 12 0 6 323 421 402 307 201 243 31 72 0 40 153 247 212 106 79 167
0 0 0 0 0 0 0 0 0 0 0 0 0 0 0 0 0 0 0 0 2 0 1 29 73 12 10 0 251 141 102 1 84 148 4 5 0 0 3 15 34 48 431 368 178
0 0 0 0 0 0 0 0 0 0 0 0 0 0 0 0 0 0 0 0 0 0 9 57 20 0 0 0 0 20 0 0 0 0 23 17 71 37 2 9 35 10 63 174 221
0 0 0 0 0 0 0 0 22 6 0 0 0 0 0 0 0 0 0 0 0 0 2 27 2 0 0 0 0 0 0 0 15 40 23 14 18 0 6 8 10 9 55 64 158
0 0 0 0 0 0 0 3 11 9 28 4 0 5 0 0 0 0 0 0 0 0 0 0 0 0 0 0 0 0 0 0 7 17 46 72 1 48 13 114 43 246 344 112 119
4 4 0 0 0 0 2 57 18 7 75 93 117 202 142 86 0 0 0 0 0 0 0 0 0 0 0 0 0 0 0 0 0 28 2 0 98 214 178 156 284 238 179 305 219
19 0 0 0 0 0 1 6 41 35 45 122 256 270 227 53 3 0 0 4 6 0 2 0 0 0 0 0 0 0 0 0 0 0 0 27 184 473 571 497 652 366 337 418 412
20 0 0 0 0 0 0 2 13 42 51 135 252 270 263 210 157 46 15 1 6 11 18 11 3 0 0 0 0 0 38 0 7 3 93 201 131 623 379 447 725 851 912 1335 1795
5 0 0 0 0 0 0 0 0 6 9 28 48 158 254 236 222 89 97 101 102 82 51 36 6 2 0 0 0 0 39 122 161 83 119 278 441 640 409 329 758 1220 2091 1771 1588
8 0 0 0 0 8 1 1 0 0 0 14 7 20 32 203 134 132 110 115 99 51 17 0 0 10 23 15 7 26 95 11 39 117 182 183 401 461 451 701 1871 2037 1485 1066 1231
0 2 0 0 0 0 0 0 0 0 0 0 5 0 10 3 78 92 50 75 79 46 3 0 0 4 79 74 183 414 349 249 105 317 154 244 490 571 1007 1889 2127 1392 442 728 1166
0 0 0 0 0 0 0 0 0 0 0 0 0 0 0 0 0 35 76 39 37 50 55 3 0 0 23 62 56 87 256 370 319 200 269 450 160 962 1292 1964 1517 723 129 94 429
CIN
0 0 0 0 0 0 0 0 0 0 0 0 0 0 0 0 0 0 0 -32 -282 -170 -115 -133 -117 -110 -243 -322 -313 -342 -23 -34 -44 -43 -91 -75 -132 -89 -93 -195 -88 -86 -195 -222 -139
0 0 0 0 0 0 0 0 0 0 0 0 0 0 0 0 0 0 0 -445 -278 -217 -275 -195 -135 -327 -258 -245 -295 -46 -25 -108 -106 -49 -73 -61 -104 -84 -157 -45 -106 -224 -171 -184 -162
0 0 0 0 0 0 0 0 0 0 0 0 0 0 0 0 0 -177 -103 -303 -267 -305 -247 -166 -23 -75 -308 -280 -275 -26 -35 -177 -60 -80 -60 -73 -92 -88 -17 -108 -98 -233 -244 -251 -187
0 0 0 0 0 0 0 0 0 0 0 0 0 0 0 0 0 -250 -408 -339 -321 -320 -191 -212 -54 -44 -51 -29 -244 -97 -87 -123 -111 -95 -72 -95 -94 -110 -108 -89 -83 -224 -285 -255 -172
0 0 0 0 0 0 0 0 0 0 0 0 0 0 0 0 0 -553 -369 -352 -439 -380 -166 -233 -64 -72 -63 -77 -184 -129 -110 -137 -47 -42 -39 -41 -98 -91 -91 -84 -80 -260 -229 -203 -169
0 0 0 0 0 0 0 0 0 0 0 0 0 0 0 0 -236 -507 -515 -505 -447 -334 -218 -96 -87 -108 -116 -117 -131 -158 -6 -19 -42 -25 -33 -74 -102 -85 -62 -87 -204 -226 -225 -192 -164
0 0 0 0 0 0 0 0 0 0 0 0 0 0 0 0 -250 -522 -513 -507 -417 -281 -56 -48 -135 -112 -90 -186 -179 -222 -9 -27 -31 -244 -40 -79 -67 -76 -69 -167 -176 -156 -170 -173 -149
0 0 0 0 0 0 0 0 0 0 0 0 0 0 0 0 -804 -536 -511 -433 -365 -272 -187 -219 -175 -86 -126 -183 -141 -167 -52 -72 -226 -128 -171 -46 -59 -136 -103 -156 -165 -161 -133 -120 -137
0 0 0 0 0 0 0 0 0 0 0 0 0 0 0 0 0 0 0 0 -330 -299 -194 -262 -229 -201 -134 -173 -100 -52 -221 -241 -57 -204 -136 -57 -61 -164 -143 -186 -204 -130 -141 -109 -98
0 0 0 0 0 0 0 0 0 0 0 0 0 0 0 0 0 0 0 0 -229 -214 -255 -108 -110 -199 -120 -107 -118 -136 -204 -223 -256 -174 -130 -85 -121 -113 -146 -180 -210 -203 -78 -48 -19
0 0 0 0 0 0 0 0 0 0 0 0 0 0 0 0 0 0 0 0 -227 -174 -122 -104 -126 -169 -177 -113 -47 -226 -207 -167 -237 -271 -214 -129 -168 -105 -104 -127 -151 -159 -161 -57 -44
0 0 0 0 0 0 0 0 0 0 0 0 0 0 0 0 0 0 0 -20 -237 -232 -113 -113 -104 -199 -90 -9 -10 0 -196 -234 -220 -211 -245 -218 -209 -135 -101 -127 -122 -115 -133 -115 -84
0 0 0 0 0 0 0 0 0 0 0 0 0 0 0 0 0 0 0 -63 -237 -144 -119 -105 -112 -96 -70 -38 -5 0 -288 -242 -98 -210 -174 -285 -262 -241 -183 -156 -120 -124 -88 -144 -125
0 0 0 0 0 0 0 0 0 0 0 0 0 0 0 0 0 0 0 0 -196 -140 -121 -46 -72 -44 -56 -8 0 0 0 -306 -232 -171 -120 -297 -107 -261 -270 -256 -267 -182 -199 -92 -150
0 0 0 0 0 0 0 0 0 0 0 0 0 0 0 0 0 0 0 0 -205 -217 -111 -31 -41 -27 -4 -4 0 -199 -348 -271 -256 -62 -152 -202 -147 -91 -260 -261 -259 -187 -215 -147 -160
0 0 0 0 0 0 0 0 0 0 0 0 0 0 0 0 0 0 0 0 0 0 0 -35 -25 -14 -11 0 -24 -219 -142 -132 -93 -118 -64 -116 -153 0 -180 -99 -256 -301 -195 -207 -114
0 0 0 0 0 0 0 0 0 0 0 0 0 0 0 0 0 0 0 0 -72 0 -1 -13 -16 -15 -4 -1 -220 -150 -81 -30 -113 -98 -48 -169 0 0 -93 -236 -174 -255 -221 -200 -346
0 0 0 0 0 0 0 0 0 0 0 0 0 0 0 0 0 0 0 0 -28 0 -18 -18 -6 -1 -1 0 -1 -134 0 0 0 0 -208 -164 -170 -136 -51 -116 -131 -393 -288 -204 -352
0 0 0 0 0 0 0 -12 -72 -134 0 0 0 0 0 0 0 0 0 0 0 0 -19 -3 -7 0 0 0 0 0 0 0 -151 -140 -191 -233 -238 0 -22 -180 -114 -249 -290 -275 -318
0 0 0 0 0 0 0 -33 -78 -110 -108 -51 0 -22 0 0 0 0 0 0 0 0 0 0 0 0 0 0 0 0 0 0 -98 -106 -99 -93 -17 -93 -225 -133 -428 -402 -292 -310 -149
-66 -75 0 0 0 0 -18 -106 -62 -89 -32 -68 -26 -27 -40 -35 0 0 0 0 0 0 0 0 0 0 0 0 0 0 0 0 0 -71 -62 0 -91 -131 -304 -288 -442 -425 -322 -468 -239
-142 0 0 0 0 0 -21 -31 -39 -32 -25 -52 -57 -25 -48 -112 -101 0 0 -74 -33 0 -26 0 0 0 0 0 0 0 0 0 0 0 0 -114 -96 -185 -308 -151 -102 -215 -245 -385 -253
-109 0 0 0 0 0 0 -49 -43 -38 -36 -48 -57 -75 -38 -61 -64 -121 -108 -13 -55 -24 -25 -23 -12 0 0 0 0 0 -46 0 -28 -27 -195 -75 -69 -197 -247 -127 -94 -120 -115 -101 -91
-48 0 0 0 0 0 0 0 0 -36 -39 -49 -36 -42 -68 -20 -38 -67 -58 -23 -21 -20 -22 -21 -44 -29 0 0 0 0 -24 -68 -44 -55 -118 -98 -134 -211 -285 -199 -116 -122 -102 -129 -123
-65 0 0 0 0 -81 -12 -22 0 0 0 -52 -65 -62 -15 -43 -25 -15 -11 -22 -23 -19 -22 0 0 -55 -31 -38 -50 -54 -183 -43 -21 -74 -30 -53 -125 -168 -202 -183 -137 -150 -224 -268 -223
0 -33 -1 0 0 -1 0 0 0 0 0 0 -106 0 -118 -7 -29 -48 -26 -47 -45 -55 -8 0 0 -53 -52 -41 -44 -48 -90 -186 -272 -98 -47 -144 -132 -174 -171 -137 -172 -246 -282 -274 -252
0 0 0 0 0 0 0 0 0 0 0 0 0 0 0 0 0 -57 -54 -52 -67 -44 -27 -39 0 0 -45 -36 -31 -29 -47 -80 -238 -45 -104 -100 -157 -138 -153 -173 -231 -337 -436 -285 -259
Wind_Speed
nan nan nan nan nan nan nan nan nan nan nan nan nan nan nan nan nan nan nan nan 21 20 15 15 11 6 nan 13 7 nan nan nan 7 4 10 15 12 17 12 17 8 6 8 7 4
nan nan nan nan nan nan nan nan nan nan nan nan nan nan nan nan nan nan nan nan 21 20 16 18 6 nan 10 17 13 nan nan nan 11 10 13 15 17 14 12 17 4 4 11 19 11
nan nan nan nan nan nan nan nan nan nan nan nan nan nan nan nan nan nan nan 13 19 17 10 8 10 nan nan nan nan nan nan nan 13 8 8 15 15 10 15 14 16 15 15 26 12
nan nan nan nan nan nan nan nan nan nan nan nan nan nan nan nan nan nan 18 10 14 14 8 7 11 13 10 9 10 11 13 12 15 13 11 14 11 11 18 17 17 15 15 18 26
nan nan nan nan nan nan nan nan nan nan nan nan nan nan nan nan nan 8 12 4 3 5 6 9 11 13 10 6 1 7 12 18 24 18 11 13 10 10 15 10 16 7 12 18 19
nan nan nan nan nan nan nan nan nan nan nan nan nan nan nan nan nan 11 12 6 6 7 2 7 9 7 8 3 6 nan nan 17 22 21 15 8 10 6 10 13 14 2 10 12 18
nan nan nan nan nan nan nan nan nan nan nan nan nan nan nan nan 10 12 11 3 5 10 11 12 11 11 13 nan nan nan nan nan 21 19 14 8 8 14 12 12 13 5 8 10 12
nan nan nan nan nan nan nan nan nan nan nan nan nan nan nan nan 13 14 9 13 15 17 13 10 10 11 14 16 18 nan nan nan nan 13 18 9 11 13 16 15 14 6 7 7 9
nan nan nan nan nan nan nan nan nan nan nan nan nan nan nan nan nan nan nan nan 14 12 24 21 17 11 12 nan 21 26 nan nan nan 13 17 17 11 16 17 17 13 10 8 6 5
nan nan nan nan nan nan nan nan nan nan nan nan nan nan nan nan nan nan nan nan nan nan nan 19 12 15 13 nan nan 30 32 35 36 18 17 17 16 15 14 15 16 9 6 5 6
nan nan nan nan nan nan nan nan nan nan nan nan nan nan nan nan nan nan nan nan nan nan 14 15 nan nan nan nan nan nan 27 29 24 21 20 nan nan 18 13 8 8 10 7 3 6
nan nan nan nan nan nan nan nan nan nan nan nan nan nan nan nan nan nan nan nan nan nan 17 16 18 nan nan nan nan nan 22 24 14 18 12 nan 16 19 18 9 6 7 7 10 3
nan nan nan nan nan nan nan nan nan nan nan nan nan nan nan nan nan nan nan nan nan 20 16 14 nan nan nan nan nan nan nan nan nan 14 7 nan nan 17 22 5 6 5 4 3 6
nan nan nan nan nan nan nan nan nan nan nan nan nan nan nan nan nan nan nan nan nan nan 22 nan nan nan nan nan nan nan nan nan 19 12 15 nan nan 18 18 18 17 10 10 5 6
nan nan nan nan nan nan nan nan nan nan nan nan nan nan nan nan nan nan nan nan nan nan nan nan nan 17 nan nan nan nan 4 6 11 nan nan nan nan nan 17 20 19 16 nan 12 6
nan nan nan nan nan nan nan nan nan nan nan nan nan nan nan nan nan nan nan nan nan nan nan nan nan nan nan nan nan 10 12 7 6 9 12 nan nan nan nan 20 17 15 12 nan 9
nan nan nan nan nan nan nan nan nan nan nan nan nan nan nan nan nan nan nan nan nan nan nan nan nan nan nan nan 20 15 13 nan nan 4 nan nan nan nan nan nan nan nan 7 17 20
nan nan nan nan nan nan nan nan nan nan nan nan nan nan nan nan nan nan nan nan nan nan nan nan nan nan nan nan nan nan nan nan nan nan nan nan nan nan nan nan nan nan nan 20 19
nan nan nan nan nan nan nan nan nan nan nan nan nan nan nan nan nan nan nan nan nan nan nan nan nan nan nan nan nan nan nan nan nan nan nan nan nan nan nan nan nan nan nan nan 20
nan nan nan nan nan nan nan nan nan nan nan nan nan nan nan nan nan nan nan nan nan nan nan nan nan nan nan nan nan nan nan nan nan nan nan nan nan nan nan 14 nan 12 1 26 17
nan nan nan nan nan nan nan nan nan nan nan nan 10 11 15 nan nan nan nan nan nan nan nan nan nan nan nan nan nan nan nan nan nan nan nan nan nan 21 19 11 8 6 13 21 18
nan nan nan nan nan nan nan nan nan nan nan 6 3 10 15 nan nan nan nan nan nan nan nan nan nan nan nan nan nan nan nan nan nan nan nan nan 10 14 17 14 17 17 16 21 17
nan nan nan nan nan nan nan nan nan nan nan 13 12 12 16 17 16 nan nan nan nan nan nan nan nan nan nan nan nan nan nan nan nan nan nan 12 6 9 23 20 13 8 8 8 6
nan nan nan nan nan nan nan nan nan nan nan nan nan 16 17 21 20 nan nan 14 22 nan nan nan nan nan nan nan nan nan nan 13 21 nan 15 11 11 16 14 14 13 10 14 15 13
nan nan nan nan nan nan nan nan nan nan nan nan nan nan nan 20 19 18 15 14 nan nan nan nan nan nan nan nan nan nan nan nan nan 17 22 17 22 19 19 13 12 10 13 15 13
nan nan nan nan nan nan nan nan nan nan nan nan nan nan nan nan nan nan nan nan nan nan nan nan nan nan nan nan 28 22 24 22 21 21 21 26 20 23 18 18 22 19 20 20 21
nan nan nan nan nan nan nan nan nan nan nan nan nan nan nan nan nan nan nan nan nan nan nan nan nan nan nan nan nan nan 19 14 18 18 23 23 19 25 21 20 19 17 19 nan 16
Wind_Direction
nan nan nan nan nan nan nan nan nan nan nan nan nan nan nan nan nan nan nan nan 47 33 356 4 111 141 nan 136 150 nan nan nan 107 59 35 20 30 40 2 356 23 14 341 354 355
nan nan nan nan nan nan nan nan nan nan nan nan nan nan nan nan nan nan nan nan 18 23 36 32 116 nan 130 136 126 nan nan nan 108 83 30 24 34 36 27 14 19 311 277 316 320
nan nan nan nan nan nan nan nan nan nan nan nan nan nan nan nan nan nan nan 35 22 27 11 87 100 nan nan nan nan nan nan nan 144 102 20 26 48 44 17 42 23 348 354 12 43
nan nan nan nan nan nan nan nan nan nan nan nan nan nan nan nan nan nan 1 5 27 61 55 68 88 105 119 142 153 187 180 141 146 130 39 54 51 2 45 50 12 351 25 36 33
nan nan nan nan nan nan nan nan nan nan nan nan nan nan nan nan nan 354 346 329 90 134 62 95 101 93 91 58 109 167 166 156 178 163 112 51 56 41 67 10 5 339 25 44 40
nan nan nan nan nan nan nan nan nan nan nan nan nan nan nan nan nan 310 310 294 178 167 141 195 163 101 73 76 209 nan nan 167 158 163 134 65 75 60 46 8 10 6 55 57 57
nan nan nan nan nan nan nan nan nan nan nan nan nan nan nan nan 250 277 279 278 197 174 201 167 151 179 110 nan nan nan nan nan 151 138 123 124 88 86 23 11 25 92 56 80 73
nan nan nan nan nan nan nan nan nan nan nan nan nan nan nan nan 259 264 242 207 197 181 193 167 187 137 86 53 29 nan nan nan nan 128 118 118 82 69 27 3 23 38 57 41 64
nan nan nan nan nan nan nan nan nan nan nan nan nan nan nan nan nan nan nan nan 228 196 181 164 180 133 86 nan 64 59 nan nan nan 69 94 91 83 44 29 18 2 4 40 75 100
nan nan nan nan nan nan nan nan nan nan nan nan nan nan nan nan nan nan nan nan nan nan nan 171 153 103 76 nan nan 57 66 61 57 66 57 85 98 59 35 20 13 0 17 62 113
nan nan nan nan nan nan nan nan nan nan nan nan nan nan nan nan nan nan nan nan nan nan 176 145 nan nan nan nan nan nan 53 52 60 55 63 nan nan 40 49 61 41 9 350 58 39
nan nan nan nan nan nan nan nan nan nan nan nan nan nan nan nan nan nan nan nan nan nan 191 169 117 nan nan nan nan nan 43 52 54 54 67 nan 44 21 14 57 69 74 26 356 70
nan nan nan nan nan nan nan nan nan nan nan nan nan nan nan nan nan nan nan nan nan 190 173 156 nan nan nan nan nan nan nan nan nan 20 33 nan nan 32 29 43 22 46 7 334 335
nan nan nan nan nan nan nan nan nan nan nan nan nan nan nan nan nan nan nan nan nan nan 169 nan nan nan nan nan nan nan nan nan 9 23 25 nan nan 66 38 47 25 352 324 297 290
nan nan nan nan nan nan nan nan nan nan nan nan nan nan nan nan nan nan nan nan nan nan nan nan nan 154 nan nan nan nan 191 16 28 nan nan nan nan nan 24 37 33 24 nan 280 229
nan nan nan nan nan nan nan nan nan nan nan nan nan nan nan nan nan nan nan nan nan nan nan nan nan nan nan nan nan 308 215 152 49 41 54 nan nan nan nan 10 344 327 4 nan 255
nan nan nan nan nan nan nan nan nan nan nan nan nan nan nan nan nan nan nan nan nan nan nan nan nan nan nan nan 230 226 196 nan nan 71 nan nan nan nan nan nan nan nan 195 192 234
nan nan nan nan nan nan nan nan nan nan nan nan nan nan nan nan nan nan nan nan nan nan nan nan nan nan nan nan nan nan nan nan nan nan nan nan nan nan nan nan nan nan nan 206 216
nan nan nan nan nan nan nan nan nan nan nan nan nan nan nan nan nan nan nan nan nan nan nan nan nan nan nan nan nan nan nan nan nan nan nan nan nan nan nan nan nan nan nan nan 178
nan nan nan nan nan nan nan nan nan nan nan nan nan nan nan nan nan nan nan nan nan nan nan nan nan nan nan nan nan nan nan nan nan nan nan nan nan nan nan 84 nan 74 337 169 150
nan nan nan nan nan nan nan nan nan nan nan nan 116 136 135 nan nan nan nan nan nan nan nan nan nan nan nan nan nan nan nan nan nan nan nan nan nan 8 29 20 88 72 86 130 138
nan nan nan nan nan nan nan nan nan nan nan 199 199 159 147 nan nan nan nan nan nan nan nan nan nan nan nan nan nan nan nan nan nan nan nan nan 46 1 341 15 88 96 115 127 133
nan nan nan nan nan nan nan nan nan nan nan 193 198 199 183 176 195 nan nan nan nan nan nan nan nan nan nan nan nan nan nan nan nan nan nan 282 4 318 323 345 12 21 109 114 155
nan nan nan nan nan nan nan nan nan nan nan nan nan 218 209 206 198 nan nan 188 185 nan nan nan nan nan nan nan nan nan nan 223 238 nan 283 291 284 299 297 297 290 286 292 298 293
nan nan nan nan nan nan nan nan nan nan nan nan nan nan nan 222 215 213 216 201 nan nan nan nan nan nan nan nan nan nan nan nan nan 275 283 299 317 311 320 280 276 284 276 287 266
nan nan nan nan nan nan nan nan nan nan nan nan nan nan nan nan nan nan nan nan nan nan nan nan nan nan nan nan 232 247 248 263 271 286 267 275 283 310 296 284 287 288 273 275 259
nan nan nan nan nan nan nan nan nan nan nan nan nan nan nan nan nan nan nan nan nan nan nan nan nan nan nan nan nan nan 244 253 257 272 288 291 302 293 296 312 323 308 291 nan 278